Orbital Elements at Epoch 2459000.5 (2020-May-31.0) TDB
Reference: JPL 20 (heliocentric ecliptic J2000)
Element | Value | Uncertainty (1-sigma) | Units |
e | .2178639247087979 | 4.4384e-08 | |
a | 2.579492362578267 | 1.8813e-08 | au |
q | 2.017514032710596 | 1.1626e-07 | au |
i | 12.15940454238083 | 6.6357e-06 | deg |
node | 255.1708469286291 | 3.076e-05 | deg |
peri | 223.5889502724918 | 4.1971e-05 | deg |
M | 334.6487730397864 | 3.0227e-05 | deg |
tp | 2459107.060507204087 (2020-Sep-14.56050720) | 0.00012798 | TDB |
period | 1513.21206873642 4.14 | 1.6554e-05 4.532e-08 | d yr |
n | .2379045260328987 | 2.6026e-09 | deg/d |
Q | 3.141470692445937 | 2.2911e-08 | au |
|
| | Orbit Determination Parameters
Additional Information
|